This is the latest recevied weather packets stored in our database for station/object SQ7KHZ-10. If no packets are shown the sender has not sent any weather packets the latest 10 day(s).
| Time | Temp. | Humidity | Pressure | Rain* | Wind** | Luminosity | Snow |
|---|---|---|---|---|---|---|---|
| 1777741881 | 20° C | 45% | 1019.9 hPa | 0 mm | - | - | - |
| 1777740669 | 23.89° C | 39% | 1020 hPa | 0 mm | - | - | - |
| 1777739457 | 23.89° C | 39% | 1020.1 hPa | 0 mm | - | - | - |
| 1777738245 | 23.33° C | 38% | 1020.2 hPa | 0 mm | - | - | - |
| 1777737043 | 22.78° C | 33% | 1020.5 hPa | 0 mm | - | - | - |
| 1777735836 | 23.33° C | 32% | 1020.7 hPa | 0 mm | - | - | - |
| 1777734631 | 22.78° C | 32% | 1021 hPa | 0 mm | - | - | - |
| 1777733423 | 23.33° C | 34% | 1021.1 hPa | 0 mm | - | - | - |
| 1777732218 | 23.89° C | 28% | 1021.2 hPa | 0 mm | - | - | - |
| 1777731012 | 23.33° C | 32% | 1021.4 hPa | 0 mm | - | - | - |
| 1777729811 | 23.89° C | 35% | 1021.6 hPa | 0 mm | - | - | - |
| 1777728605 | 24.44° C | 33% | 1021.8 hPa | 0 mm | - | - | - |
| 1777727402 | 22.78° C | 33% | 1022.1 hPa | 0 mm | - | - | - |
| 1777726197 | 22.78° C | 37% | 1022.4 hPa | 0 mm | - | - | - |
| 1777724990 | 22.22° C | 36% | 1022.6 hPa | 0 mm | - | - | - |
| 1777723783 | 22.78° C | 37% | 1022.9 hPa | 0 mm | - | - | - |
| 1777722580 | 22.22° C | 40% | 1023.2 hPa | 0 mm | - | - | - |
| 1777721373 | 22.22° C | 37% | 1023.5 hPa | 0 mm | - | - | - |
| 1777720167 | 22.22° C | 36% | 1023.7 hPa | 0 mm | - | - | - |
| 1777718965 | 21.67° C | 38% | 1023.9 hPa | 0 mm | - | - | - |
| 1777717758 | 22.22° C | 38% | 1024.1 hPa | 0 mm | - | - | - |
| 1777716553 | 21.11° C | 43% | 1024.3 hPa | 0 mm | - | - | - |
| 1777715348 | 20.56° C | 42% | 1024.4 hPa | 0 mm | - | - | - |
| 1777714144 | 20.56° C | 45% | 1024.7 hPa | 0 mm | - | - | - |
| 1777712937 | 20° C | 41% | 1024.8 hPa | 0 mm | - | - | - |
* Rain latest hour (hover to see other rain measurements)
** Current wind speed in m/s (hover to see current wind gust speed)